Volver al catálogo

STARLINK-4438

ActivoComunicacionesSSO
NORAD 53682·PAYLOAD·🇺🇸 United States

Lanzado Aug 31, 2022 desde Vandenberg Space Force Base

Loading…

Próximos Pases (próximas 24 horas)

TLE

ActualizadoSource: CelesTrak SupGP

Época: Sep 15, 2026, 02:19 UTC

1 53682C 22105AL  26258.09701389  .00063335  00000+0  19661-2 0  2586
2 53682  97.2842 134.8768 0001800  96.8476 231.4191 15.33406062    16

Sigue STARLINK-4438 en tiempo real con AllMySat

Download on the App Store